Regional Weather Roundup
Issued by NWS Binghamton, NY

Current Version | Previous Version | Text Only | Print | Product List | Glossary On
Versions: 1 2 3 4 5 6 7 8 9 10 11 12 13 14 15 16 17 18 19 20 21 22 23 24 25 26 27 28 29 30 31 32 33 34 35 36 37 38 39 40 41 42 43 44 45 46 47 48 49 50
000
ASUS41 KBGM 240610
RWRBGM
RWRBGM
BINGHAMTON REGIONAL WEATHER ROUNDUP
NATIONAL WEATHER SERVICE BINGHAMTON NY
200 AM EDT SUN MAY 24 2015

Note: "fair" indicates few or no clouds below 12,000 feet with no
significant weather and/or obstructions to visibility.

* = Station(s) that does not report precipitation, such as rain,
snow, etc, also no thunder or fog.

!NYZ009-015>018-022>025-036-037-044>046-055>057-062-240700
...CENTRAL NEW YORK...

CITY           SKY/WX    TMP DP  RH WIND       PRES   REMARKS
BINGHAMTON     CLEAR     50  33  52 SW9       30.31F
CORTLAND       FAIR      39  37  93 CALM      30.33R
DANSVILLE      CLEAR     46  36  68 SE7       30.32S
ELMIRA         CLEAR     39  36  89 CALM      30.33S
ITHACA         CLEAR     45  35  67 SE3       30.31F
MONTICELLO     CLEAR     43  36  75 CALM      30.34S
NORWICH        CLEAR     37  36  93 CALM      30.32S
ONEONTA        CLEAR     48  27  43 SW6       30.31S
PENN YAN       CLEAR     53  40  61 SW13      30.29F
ROME           CLEAR     39  36  89 SE3       30.29S
SIDNEY         CLEAR     39  39 100 CALM      30.33S
SYRACUSE       PTCLDY    52  32  46 S7        30.27S
$$

!PAZ038>040-043-044-047-048-072-240700
...NORTHEAST PENNSYLVANIA...

CITY           SKY/WX    TMP DP  RH WIND       PRES   REMARKS
HAZLETON       CLEAR     52  32  46 CALM      30.38S
SCRANTON       CLEAR     46  34  62 CALM      30.34S
$$
&&
KEY
WCI = WIND CHILL INDEX
VSB = VISIBILITY
HX  = HEAT INDEX
$$



USA.gov is the U.S. government's official web portal to all federal, state and local government web resources and services.